owner,sensor,date,latitude,longitude,air_temperature,qcFlag 
DISL,ioos:station:DISL:BSCA:1,2016-04-01T00:00:00Z,30.3288,-87.8293,22.1,1111122 
DISL,ioos:station:DISL:BSCA:1,2016-04-01T00:30:00Z,30.3288,-87.8293,22.0,1111122 
DISL,ioos:station:DISL:BSCA:1,2016-04-01T01:00:00Z,30.3288,-87.8293,22.01,1111122 
DISL,ioos:station:DISL:BSCA:1,2016-04-01T01:30:00Z,30.3288,-87.8293,22.14,1111122 
DISL,ioos:station:DISL:BSCA:1,2016-04-01T02:00:00Z,30.3288,-87.8293,22.11,1111122 
DISL,ioos:station:DISL:BSCA:1,2016-04-01T02:30:00Z,30.3288,-87.8293,22.14,1111122 
DISL,ioos:station:DISL:BSCA:1,2016-04-01T03:00:00Z,30.3288,-87.8293,22.11,1111122 
DISL,ioos:station:DISL:BSCA:1,2016-04-01T03:30:00Z,30.3288,-87.8293,21.94,1111122 
DISL,ioos:station:DISL:BSCA:1,2016-04-01T04:00:00Z,30.3288,-87.8293,21.84,1111122 
DISL,ioos:station:DISL:BSCA:1,2016-04-01T04:30:00Z,30.3288,-87.8293,21.87,1111122 
DISL,ioos:station:DISL:BSCA:1,2016-04-01T05:00:00Z,30.3288,-87.8293,21.91,1111122 
DISL,ioos:station:DISL:BSCA:1,2016-04-01T05:30:00Z,30.3288,-87.8293,21.98,1111122 
DISL,ioos:station:DISL:BSCA:1,2016-04-01T06:00:00Z,30.3288,-87.8293,21.77,1111122 
DISL,ioos:station:DISL:BSCA:1,2016-04-01T06:30:00Z,30.3288,-87.8293,21.67,1111122 
DISL,ioos:station:DISL:BSCA:1,2016-04-01T07:00:00Z,30.3288,-87.8293,21.67,1111122 
DISL,ioos:station:DISL:BSCA:1,2016-04-01T07:30:00Z,30.3288,-87.8293,21.47,1111122 
DISL,ioos:station:DISL:BSCA:1,2016-04-01T08:00:00Z,30.3288,-87.8293,21.33,1111122 
DISL,ioos:station:DISL:BSCA:1,2016-04-01T08:30:00Z,30.3288,-87.8293,21.2,1111122 
DISL,ioos:station:DISL:BSCA:1,2016-04-01T09:00:00Z,30.3288,-87.8293,21.47,1111122 
DISL,ioos:station:DISL:BSCA:1,2016-04-01T09:30:00Z,30.3288,-87.8293,21.44,1111122 
DISL,ioos:station:DISL:BSCA:1,2016-04-01T10:00:00Z,30.3288,-87.8293,21.27,1111122 
DISL,ioos:station:DISL:BSCA:1,2016-04-01T10:30:00Z,30.3288,-87.8293,21.3,1111122 
DISL,ioos:station:DISL:BSCA:1,2016-04-01T11:00:00Z,30.3288,-87.8293,21.37,1111122 
DISL,ioos:station:DISL:BSCA:1,2016-04-01T11:30:00Z,30.3288,-87.8293,21.4,1111122 
DISL,ioos:station:DISL:BSCA:1,2016-04-01T12:00:00Z,30.3288,-87.8293,21.64,1111122 
DISL,ioos:station:DISL:BSCA:1,2016-04-01T12:30:00Z,30.3288,-87.8293,21.74,1111122 
DISL,ioos:station:DISL:BSCA:1,2016-04-01T13:00:00Z,30.3288,-87.8293,22.04,1111122 
DISL,ioos:station:DISL:BSCA:1,2016-04-01T13:30:00Z,30.3288,-87.8293,22.04,1111122 
DISL,ioos:station:DISL:BSCA:1,2016-04-01T14:00:00Z,30.3288,-87.8293,22.11,1111122 
DISL,ioos:station:DISL:BSCA:1,2016-04-01T14:30:00Z,30.3288,-87.8293,22.34,1111122 
DISL,ioos:station:DISL:BSCA:1,2016-04-01T15:00:00Z,30.3288,-87.8293,22.04,1111122 
DISL,ioos:station:DISL:BSCA:1,2016-04-01T15:30:00Z,30.3288,-87.8293,20.51,1111122 
DISL,ioos:station:DISL:BSCA:1,2016-04-01T16:00:00Z,30.3288,-87.8293,20.35,1111122 
DISL,ioos:station:DISL:BSCA:1,2016-04-01T16:30:00Z,30.3288,-87.8293,20.86,1111122 
DISL,ioos:station:DISL:BSCA:1,2016-04-01T17:00:00Z,30.3288,-87.8293,20.69,1111122 
DISL,ioos:station:DISL:BSCA:1,2016-04-01T17:30:00Z,30.3288,-87.8293,20.42,1111122 
DISL,ioos:station:DISL:BSCA:1,2016-04-01T18:00:00Z,30.3288,-87.8293,20.56,1111122 
DISL,ioos:station:DISL:BSCA:1,2016-04-01T18:30:00Z,30.3288,-87.8293,20.56,1111122 
DISL,ioos:station:DISL:BSCA:1,2016-04-01T19:00:00Z,30.3288,-87.8293,20.62,1111122 
DISL,ioos:station:DISL:BSCA:1,2016-04-01T19:30:00Z,30.3288,-87.8293,20.62,1111122 
DISL,ioos:station:DISL:BSCA:1,2016-04-01T20:00:00Z,30.3288,-87.8293,20.76,1111122 
DISL,ioos:station:DISL:BSCA:1,2016-04-01T20:30:00Z,30.3288,-87.8293,20.89,1111122 
DISL,ioos:station:DISL:BSCA:1,2016-04-01T21:00:00Z,30.3288,-87.8293,20.89,1111122 
DISL,ioos:station:DISL:BSCA:1,2016-04-01T21:30:00Z,30.3288,-87.8293,20.79,1111122 
DISL,ioos:station:DISL:BSCA:1,2016-04-01T22:00:00Z,30.3288,-87.8293,20.49,1111122 
DISL,ioos:station:DISL:BSCA:1,2016-04-01T22:30:00Z,30.3288,-87.8293,20.08,1111122 
DISL,ioos:station:DISL:BSCA:1,2016-04-01T23:00:00Z,30.3288,-87.8293,20.01,1111122 
DISL,ioos:station:DISL:BSCA:1,2016-04-01T23:30:00Z,30.3288,-87.8293,19.78,1111122 
DISL,ioos:station:DISL:BSCA:1,2016-04-02T00:00:00Z,30.3288,-87.8293,19.1,1111122 
DISL,ioos:station:DISL:BSCA:1,2016-04-02T00:30:00Z,30.3288,-87.8293,17.34,1111122 
DISL,ioos:station:DISL:BSCA:1,2016-04-02T01:00:00Z,30.3288,-87.8293,17.37,1111122 
DISL,ioos:station:DISL:BSCA:1,2016-04-02T01:30:00Z,30.3288,-87.8293,17.44,1111122 
DISL,ioos:station:DISL:BSCA:1,2016-04-02T02:00:00Z,30.3288,-87.8293,17.68,1111122 
DISL,ioos:station:DISL:BSCA:1,2016-04-02T02:30:00Z,30.3288,-87.8293,17.34,1111122 
DISL,ioos:station:DISL:BSCA:1,2016-04-02T03:00:00Z,30.3288,-87.8293,16.19,1111122 
DISL,ioos:station:DISL:BSCA:1,2016-04-02T03:30:00Z,30.3288,-87.8293,15.82,1111122 
DISL,ioos:station:DISL:BSCA:1,2016-04-02T04:00:00Z,30.3288,-87.8293,15.02,1111122 
DISL,ioos:station:DISL:BSCA:1,2016-04-02T04:30:00Z,30.3288,-87.8293,15.12,1111122 
DISL,ioos:station:DISL:BSCA:1,2016-04-02T05:00:00Z,30.3288,-87.8293,15.22,1111122 
DISL,ioos:station:DISL:BSCA:1,2016-04-02T05:30:00Z,30.3288,-87.8293,15.42,1111122 
DISL,ioos:station:DISL:BSCA:1,2016-04-02T06:00:00Z,30.3288,-87.8293,15.19,1111122 
DISL,ioos:station:DISL:BSCA:1,2016-04-02T06:30:00Z,30.3288,-87.8293,15.19,1111122 
DISL,ioos:station:DISL:BSCA:1,2016-04-02T07:00:00Z,30.3288,-87.8293,15.19,1111122 
DISL,ioos:station:DISL:BSCA:1,2016-04-02T07:30:00Z,30.3288,-87.8293,15.32,1111122 
DISL,ioos:station:DISL:BSCA:1,2016-04-02T08:00:00Z,30.3288,-87.8293,15.12,1111122 
DISL,ioos:station:DISL:BSCA:1,2016-04-02T08:30:00Z,30.3288,-87.8293,15.29,1111122 
DISL,ioos:station:DISL:BSCA:1,2016-04-02T09:00:00Z,30.3288,-87.8293,15.25,1111122 
DISL,ioos:station:DISL:BSCA:1,2016-04-02T09:30:00Z,30.3288,-87.8293,14.68,1111122 
DISL,ioos:station:DISL:BSCA:1,2016-04-02T10:00:00Z,30.3288,-87.8293,14.24,1111122 
DISL,ioos:station:DISL:BSCA:1,2016-04-02T10:30:00Z,30.3288,-87.8293,13.66,1111122 
DISL,ioos:station:DISL:BSCA:1,2016-04-02T11:00:00Z,30.3288,-87.8293,13.29,1111122 
DISL,ioos:station:DISL:BSCA:1,2016-04-02T11:30:00Z,30.3288,-87.8293,13.29,1111122 
DISL,ioos:station:DISL:BSCA:1,2016-04-02T12:00:00Z,30.3288,-87.8293,12.79,1111122 
DISL,ioos:station:DISL:BSCA:1,2016-04-02T12:30:00Z,30.3288,-87.8293,12.99,1111122 
DISL,ioos:station:DISL:BSCA:1,2016-04-02T13:00:00Z,30.3288,-87.8293,13.32,1111122 
DISL,ioos:station:DISL:BSCA:1,2016-04-02T13:30:00Z,30.3288,-87.8293,13.9,1111122 
DISL,ioos:station:DISL:BSCA:1,2016-04-02T14:00:00Z,30.3288,-87.8293,14.27,1111122 
DISL,ioos:station:DISL:BSCA:1,2016-04-02T14:30:00Z,30.3288,-87.8293,14.78,1111122 
DISL,ioos:station:DISL:BSCA:1,2016-04-02T15:00:00Z,30.3288,-87.8293,15.19,1111122 
DISL,ioos:station:DISL:BSCA:1,2016-04-02T15:30:00Z,30.3288,-87.8293,15.08,1111122 
DISL,ioos:station:DISL:BSCA:1,2016-04-02T16:00:00Z,30.3288,-87.8293,16.06,1111122 
DISL,ioos:station:DISL:BSCA:1,2016-04-02T16:30:00Z,30.3288,-87.8293,16.53,1111122 
DISL,ioos:station:DISL:BSCA:1,2016-04-02T17:00:00Z,30.3288,-87.8293,16.9,1111122 
DISL,ioos:station:DISL:BSCA:1,2016-04-02T17:30:00Z,30.3288,-87.8293,17.03,1111122 
DISL,ioos:station:DISL:BSCA:1,2016-04-02T18:00:00Z,30.3288,-87.8293,17.34,1111122 
DISL,ioos:station:DISL:BSCA:1,2016-04-02T18:30:00Z,30.3288,-87.8293,17.68,1111122 
DISL,ioos:station:DISL:BSCA:1,2016-04-02T19:00:00Z,30.3288,-87.8293,18.25,1111122 
DISL,ioos:station:DISL:BSCA:1,2016-04-02T19:30:00Z,30.3288,-87.8293,18.73,1111122 
DISL,ioos:station:DISL:BSCA:1,2016-04-02T20:00:00Z,30.3288,-87.8293,19.03,1111122 
DISL,ioos:station:DISL:BSCA:1,2016-04-02T20:30:00Z,30.3288,-87.8293,19.3,1111122 
DISL,ioos:station:DISL:BSCA:1,2016-04-02T21:00:00Z,30.3288,-87.8293,19.71,1111122 
DISL,ioos:station:DISL:BSCA:1,2016-04-02T21:30:00Z,30.3288,-87.8293,20.04,1111122 
DISL,ioos:station:DISL:BSCA:1,2016-04-02T22:00:00Z,30.3288,-87.8293,20.11,1111122 
DISL,ioos:station:DISL:BSCA:1,2016-04-02T22:30:00Z,30.3288,-87.8293,20.24,1111122 
DISL,ioos:station:DISL:BSCA:1,2016-04-02T23:00:00Z,30.3288,-87.8293,20.51,1111122 
DISL,ioos:station:DISL:BSCA:1,2016-04-02T23:30:00Z,30.3288,-87.8293,20.24,1111122 
DISL,ioos:station:DISL:BSCA:1,2016-04-03T00:00:00Z,30.3288,-87.8293,19.91,1111122 
DISL,ioos:station:DISL:BSCA:1,2016-04-03T00:30:00Z,30.3288,-87.8293,19.54,1111122 
DISL,ioos:station:DISL:BSCA:1,2016-04-03T01:00:00Z,30.3288,-87.8293,19.06,1111122 
DISL,ioos:station:DISL:BSCA:1,2016-04-03T01:30:00Z,30.3288,-87.8293,18.29,1111122 
DISL,ioos:station:DISL:BSCA:1,2016-04-03T02:00:00Z,30.3288,-87.8293,18.43,1111122 
DISL,ioos:station:DISL:BSCA:1,2016-04-03T02:30:00Z,30.3288,-87.8293,17.72,1111122 
DISL,ioos:station:DISL:BSCA:1,2016-04-03T03:00:00Z,30.3288,-87.8293,17.35,1111122 
DISL,ioos:station:DISL:BSCA:1,2016-04-03T03:30:00Z,30.3288,-87.8293,16.84,1111122 
DISL,ioos:station:DISL:BSCA:1,2016-04-03T04:00:00Z,30.3288,-87.8293,16.95,1111122 
DISL,ioos:station:DISL:BSCA:1,2016-04-03T04:30:00Z,30.3288,-87.8293,16.68,1111122 
DISL,ioos:station:DISL:BSCA:1,2016-04-03T05:00:00Z,30.3288,-87.8293,16.41,1111122 
DISL,ioos:station:DISL:BSCA:1,2016-04-03T05:30:00Z,30.3288,-87.8293,15.73,1111122 
DISL,ioos:station:DISL:BSCA:1,2016-04-03T06:00:00Z,30.3288,-87.8293,15.66,1111122 
DISL,ioos:station:DISL:BSCA:1,2016-04-03T06:30:00Z,30.3288,-87.8293,15.25,1111122 
DISL,ioos:station:DISL:BSCA:1,2016-04-03T07:00:00Z,30.3288,-87.8293,14.81,1111122 
DISL,ioos:station:DISL:BSCA:1,2016-04-03T07:30:00Z,30.3288,-87.8293,14.2,1111122 
DISL,ioos:station:DISL:BSCA:1,2016-04-03T08:00:00Z,30.3288,-87.8293,14.0,1111122 
DISL,ioos:station:DISL:BSCA:1,2016-04-03T08:30:00Z,30.3288,-87.8293,13.73,1111122 
DISL,ioos:station:DISL:BSCA:1,2016-04-03T09:00:00Z,30.3288,-87.8293,13.36,1111122 
DISL,ioos:station:DISL:BSCA:1,2016-04-03T09:30:00Z,30.3288,-87.8293,12.86,1111122 
DISL,ioos:station:DISL:BSCA:1,2016-04-03T10:00:00Z,30.3288,-87.8293,12.63,1111122 
DISL,ioos:station:DISL:BSCA:1,2016-04-03T10:30:00Z,30.3288,-87.8293,12.46,1111122 
DISL,ioos:station:DISL:BSCA:1,2016-04-03T11:00:00Z,30.3288,-87.8293,12.42,1111122 
DISL,ioos:station:DISL:BSCA:1,2016-04-03T11:30:00Z,30.3288,-87.8293,11.81,1111122 
DISL,ioos:station:DISL:BSCA:1,2016-04-03T12:00:00Z,30.3288,-87.8293,12.87,1111122 
DISL,ioos:station:DISL:BSCA:1,2016-04-03T12:30:00Z,30.3288,-87.8293,13.07,1111122 
DISL,ioos:station:DISL:BSCA:1,2016-04-03T13:00:00Z,30.3288,-87.8293,13.51,1111122 
DISL,ioos:station:DISL:BSCA:1,2016-04-03T13:30:00Z,30.3288,-87.8293,14.21,1111122 
DISL,ioos:station:DISL:BSCA:1,2016-04-03T14:00:00Z,30.3288,-87.8293,15.49,1111122 
DISL,ioos:station:DISL:BSCA:1,2016-04-03T14:30:00Z,30.3288,-87.8293,16.71,1111122 
DISL,ioos:station:DISL:BSCA:1,2016-04-03T15:00:00Z,30.3288,-87.8293,17.42,1111122 
DISL,ioos:station:DISL:BSCA:1,2016-04-03T15:30:00Z,30.3288,-87.8293,17.71,1111122 
DISL,ioos:station:DISL:BSCA:1,2016-04-03T16:00:00Z,30.3288,-87.8293,18.22,1111122 
DISL,ioos:station:DISL:BSCA:1,2016-04-03T16:30:00Z,30.3288,-87.8293,18.76,1111122 
DISL,ioos:station:DISL:BSCA:1,2016-04-03T17:00:00Z,30.3288,-87.8293,19.44,1111122 
DISL,ioos:station:DISL:BSCA:1,2016-04-03T17:30:00Z,30.3288,-87.8293,18.12,1111122 
DISL,ioos:station:DISL:BSCA:1,2016-04-03T18:00:00Z,30.3288,-87.8293,17.81,1111122 
DISL,ioos:station:DISL:BSCA:1,2016-04-03T18:30:00Z,30.3288,-87.8293,18.25,1111122 
DISL,ioos:station:DISL:BSCA:1,2016-04-03T19:00:00Z,30.3288,-87.8293,18.59,1111122 
DISL,ioos:station:DISL:BSCA:1,2016-04-03T19:30:00Z,30.3288,-87.8293,18.83,1111122 
DISL,ioos:station:DISL:BSCA:1,2016-04-03T20:00:00Z,30.3288,-87.8293,19.4,1111122 
DISL,ioos:station:DISL:BSCA:1,2016-04-03T20:30:00Z,30.3288,-87.8293,19.98,1111122 
DISL,ioos:station:DISL:BSCA:1,2016-04-03T21:00:00Z,30.3288,-87.8293,19.26,1111122 
DISL,ioos:station:DISL:BSCA:1,2016-04-03T21:30:00Z,30.3288,-87.8293,19.33,1111122 
DISL,ioos:station:DISL:BSCA:1,2016-04-03T22:00:00Z,30.3288,-87.8293,19.77,1111122 
DISL,ioos:station:DISL:BSCA:1,2016-04-03T22:30:00Z,30.3288,-87.8293,19.77,1111122 
DISL,ioos:station:DISL:BSCA:1,2016-04-03T23:00:00Z,30.3288,-87.8293,19.8,1111122 
DISL,ioos:station:DISL:BSCA:1,2016-04-03T23:30:00Z,30.3288,-87.8293,19.43,1111122 
DISL,ioos:station:DISL:BSCA:1,2016-04-04T00:00:00Z,30.3288,-87.8293,19.2,1111122 
DISL,ioos:station:DISL:BSCA:1,2016-04-04T00:30:00Z,30.3288,-87.8293,19.1,1111122 
DISL,ioos:station:DISL:BSCA:1,2016-04-04T01:00:00Z,30.3288,-87.8293,19.2,1111122 
DISL,ioos:station:DISL:BSCA:1,2016-04-04T01:30:00Z,30.3288,-87.8293,19.23,1111122 
DISL,ioos:station:DISL:BSCA:1,2016-04-04T02:00:00Z,30.3288,-87.8293,19.2,1111122 
DISL,ioos:station:DISL:BSCA:1,2016-04-04T02:30:00Z,30.3288,-87.8293,19.3,1111122 
DISL,ioos:station:DISL:BSCA:1,2016-04-04T03:00:00Z,30.3288,-87.8293,19.3,1111122 
DISL,ioos:station:DISL:BSCA:1,2016-04-04T03:30:00Z,30.3288,-87.8293,19.13,1111122 
DISL,ioos:station:DISL:BSCA:1,2016-04-04T04:00:00Z,30.3288,-87.8293,19.06,1111122 
DISL,ioos:station:DISL:BSCA:1,2016-04-04T04:30:00Z,30.3288,-87.8293,19.1,1111122 
DISL,ioos:station:DISL:BSCA:1,2016-04-04T05:00:00Z,30.3288,-87.8293,19.03,1111122 
DISL,ioos:station:DISL:BSCA:1,2016-04-04T05:30:00Z,30.3288,-87.8293,18.93,1111122 
DISL,ioos:station:DISL:BSCA:1,2016-04-04T06:00:00Z,30.3288,-87.8293,18.83,1111122 
DISL,ioos:station:DISL:BSCA:1,2016-04-04T06:30:00Z,30.3288,-87.8293,18.83,1111122 
DISL,ioos:station:DISL:BSCA:1,2016-04-04T07:00:00Z,30.3288,-87.8293,18.76,1111122 
DISL,ioos:station:DISL:BSCA:1,2016-04-04T07:30:00Z,30.3288,-87.8293,18.73,1111122 
DISL,ioos:station:DISL:BSCA:1,2016-04-04T08:00:00Z,30.3288,-87.8293,18.52,1111122 
DISL,ioos:station:DISL:BSCA:1,2016-04-04T08:30:00Z,30.3288,-87.8293,18.18,1111122 
DISL,ioos:station:DISL:BSCA:1,2016-04-04T09:00:00Z,30.3288,-87.8293,17.98,1111122 
DISL,ioos:station:DISL:BSCA:1,2016-04-04T09:30:00Z,30.3288,-87.8293,17.82,1111122 
DISL,ioos:station:DISL:BSCA:1,2016-04-04T10:00:00Z,30.3288,-87.8293,17.11,1111122 
DISL,ioos:station:DISL:BSCA:1,2016-04-04T10:30:00Z,30.3288,-87.8293,16.5,1111122 
DISL,ioos:station:DISL:BSCA:1,2016-04-04T11:00:00Z,30.3288,-87.8293,16.51,1111122 
DISL,ioos:station:DISL:BSCA:1,2016-04-04T11:30:00Z,30.3288,-87.8293,16.54,1111122 
DISL,ioos:station:DISL:BSCA:1,2016-04-04T12:00:00Z,30.3288,-87.8293,16.44,1111122 
DISL,ioos:station:DISL:BSCA:1,2016-04-04T12:30:00Z,30.3288,-87.8293,16.31,1111122 
DISL,ioos:station:DISL:BSCA:1,2016-04-04T13:00:00Z,30.3288,-87.8293,16.27,1111122 
DISL,ioos:station:DISL:BSCA:1,2016-04-04T13:30:00Z,30.3288,-87.8293,16.61,1111122 
DISL,ioos:station:DISL:BSCA:1,2016-04-04T14:00:00Z,30.3288,-87.8293,17.38,1111122 
DISL,ioos:station:DISL:BSCA:1,2016-04-04T14:30:00Z,30.3288,-87.8293,17.34,1111122 
DISL,ioos:station:DISL:BSCA:1,2016-04-04T15:00:00Z,30.3288,-87.8293,18.05,1111122 
DISL,ioos:station:DISL:BSCA:1,2016-04-04T15:30:00Z,30.3288,-87.8293,19.13,1111122 
DISL,ioos:station:DISL:BSCA:1,2016-04-04T16:00:00Z,30.3288,-87.8293,20.08,1111122 
DISL,ioos:station:DISL:BSCA:1,2016-04-04T16:30:00Z,30.3288,-87.8293,20.01,1111122 
DISL,ioos:station:DISL:BSCA:1,2016-04-04T17:00:00Z,30.3288,-87.8293,19.64,1111122 
DISL,ioos:station:DISL:BSCA:1,2016-04-04T17:30:00Z,30.3288,-87.8293,20.11,1111122 
DISL,ioos:station:DISL:BSCA:1,2016-04-04T18:00:00Z,30.3288,-87.8293,20.25,1111122 
DISL,ioos:station:DISL:BSCA:1,2016-04-04T18:30:00Z,30.3288,-87.8293,20.82,1111122 
DISL,ioos:station:DISL:BSCA:1,2016-04-04T19:00:00Z,30.3288,-87.8293,21.08,1111122 
DISL,ioos:station:DISL:BSCA:1,2016-04-04T19:30:00Z,30.3288,-87.8293,20.94,1111122 
DISL,ioos:station:DISL:BSCA:1,2016-04-04T20:00:00Z,30.3288,-87.8293,21.28,1111122 
DISL,ioos:station:DISL:BSCA:1,2016-04-04T20:30:00Z,30.3288,-87.8293,20.94,1111122 
DISL,ioos:station:DISL:BSCA:1,2016-04-04T21:00:00Z,30.3288,-87.8293,21.15,1111122 
DISL,ioos:station:DISL:BSCA:1,2016-04-04T21:30:00Z,30.3288,-87.8293,20.67,1111122 
DISL,ioos:station:DISL:BSCA:1,2016-04-04T22:00:00Z,30.3288,-87.8293,21.01,1111122 
DISL,ioos:station:DISL:BSCA:1,2016-04-04T22:30:00Z,30.3288,-87.8293,20.94,1111122 
DISL,ioos:station:DISL:BSCA:1,2016-04-04T23:00:00Z,30.3288,-87.8293,20.7,1111122 
DISL,ioos:station:DISL:BSCA:1,2016-04-04T23:30:00Z,30.3288,-87.8293,20.61,1111122 
DISL,ioos:station:DISL:BSCA:1,2016-04-05T00:00:00Z,30.3288,-87.8293,20.55,1111122 
DISL,ioos:station:DISL:BSCA:1,2016-04-05T00:30:00Z,30.3288,-87.8293,20.38,1111122 
DISL,ioos:station:DISL:BSCA:1,2016-04-05T01:00:00Z,30.3288,-87.8293,20.28,1111122 
DISL,ioos:station:DISL:BSCA:1,2016-04-05T01:30:00Z,30.3288,-87.8293,20.15,1111122 
DISL,ioos:station:DISL:BSCA:1,2016-04-05T02:00:00Z,30.3288,-87.8293,20.12,1111122 
DISL,ioos:station:DISL:BSCA:1,2016-04-05T02:30:00Z,30.3288,-87.8293,20.08,1111122 
DISL,ioos:station:DISL:BSCA:1,2016-04-05T03:00:00Z,30.3288,-87.8293,20.15,1111122 
DISL,ioos:station:DISL:BSCA:1,2016-04-05T03:30:00Z,30.3288,-87.8293,20.05,1111122 
DISL,ioos:station:DISL:BSCA:1,2016-04-05T04:00:00Z,30.3288,-87.8293,19.88,1111122 
DISL,ioos:station:DISL:BSCA:1,2016-04-05T04:30:00Z,30.3288,-87.8293,19.71,1111122 
DISL,ioos:station:DISL:BSCA:1,2016-04-05T05:00:00Z,30.3288,-87.8293,19.88,1111122 
DISL,ioos:station:DISL:BSCA:1,2016-04-05T05:30:00Z,30.3288,-87.8293,19.95,1111122 
DISL,ioos:station:DISL:BSCA:1,2016-04-05T06:00:00Z,30.3288,-87.8293,19.64,1111122 
DISL,ioos:station:DISL:BSCA:1,2016-04-05T06:30:00Z,30.3288,-87.8293,19.51,1111122 
DISL,ioos:station:DISL:BSCA:1,2016-04-05T07:00:00Z,30.3288,-87.8293,19.27,1111122 
DISL,ioos:station:DISL:BSCA:1,2016-04-05T07:30:00Z,30.3288,-87.8293,19.17,1111122 
DISL,ioos:station:DISL:BSCA:1,2016-04-05T08:00:00Z,30.3288,-87.8293,18.86,1111122 
DISL,ioos:station:DISL:BSCA:1,2016-04-05T08:30:00Z,30.3288,-87.8293,18.56,1111122 
DISL,ioos:station:DISL:BSCA:1,2016-04-05T09:00:00Z,30.3288,-87.8293,18.49,1111122 
DISL,ioos:station:DISL:BSCA:1,2016-04-05T09:30:00Z,30.3288,-87.8293,18.42,1111122 
DISL,ioos:station:DISL:BSCA:1,2016-04-05T10:00:00Z,30.3288,-87.8293,18.08,1111122 
DISL,ioos:station:DISL:BSCA:1,2016-04-05T10:30:00Z,30.3288,-87.8293,18.15,1111122 
DISL,ioos:station:DISL:BSCA:1,2016-04-05T11:00:00Z,30.3288,-87.8293,17.79,1111122 
DISL,ioos:station:DISL:BSCA:1,2016-04-05T11:30:00Z,30.3288,-87.8293,17.65,1111122 
DISL,ioos:station:DISL:BSCA:1,2016-04-05T12:00:00Z,30.3288,-87.8293,17.75,1111122 
DISL,ioos:station:DISL:BSCA:1,2016-04-05T12:30:00Z,30.3288,-87.8293,17.62,1111122 
DISL,ioos:station:DISL:BSCA:1,2016-04-05T13:00:00Z,30.3288,-87.8293,17.82,1111122 
DISL,ioos:station:DISL:BSCA:1,2016-04-05T13:30:00Z,30.3288,-87.8293,18.22,1111122 
DISL,ioos:station:DISL:BSCA:1,2016-04-05T14:00:00Z,30.3288,-87.8293,19.27,1111122 
DISL,ioos:station:DISL:BSCA:1,2016-04-05T14:30:00Z,30.3288,-87.8293,20.42,1111122 
DISL,ioos:station:DISL:BSCA:1,2016-04-05T15:00:00Z,30.3288,-87.8293,21.44,1111122 
DISL,ioos:station:DISL:BSCA:1,2016-04-05T15:30:00Z,30.3288,-87.8293,21.77,1111122 
DISL,ioos:station:DISL:BSCA:1,2016-04-05T16:00:00Z,30.3288,-87.8293,22.3,1111122 
DISL,ioos:station:DISL:BSCA:1,2016-04-05T16:30:00Z,30.3288,-87.8293,22.87,1111122 
DISL,ioos:station:DISL:BSCA:1,2016-04-05T17:00:00Z,30.3288,-87.8293,23.28,1111122 
DISL,ioos:station:DISL:BSCA:1,2016-04-05T17:30:00Z,30.3288,-87.8293,23.82,1111122 
DISL,ioos:station:DISL:BSCA:1,2016-04-05T18:00:00Z,30.3288,-87.8293,23.41,1111122 
DISL,ioos:station:DISL:BSCA:1,2016-04-05T18:30:00Z,30.3288,-87.8293,22.26,1111122 
DISL,ioos:station:DISL:BSCA:1,2016-04-05T19:00:00Z,30.3288,-87.8293,21.42,1111122 
DISL,ioos:station:DISL:BSCA:1,2016-04-05T19:30:00Z,30.3288,-87.8293,21.35,1111122 
DISL,ioos:station:DISL:BSCA:1,2016-04-05T20:00:00Z,30.3288,-87.8293,21.18,1111122 
DISL,ioos:station:DISL:BSCA:1,2016-04-05T20:30:00Z,30.3288,-87.8293,21.31,1111122 
DISL,ioos:station:DISL:BSCA:1,2016-04-05T21:00:00Z,30.3288,-87.8293,21.15,1111122 
DISL,ioos:station:DISL:BSCA:1,2016-04-05T21:30:00Z,30.3288,-87.8293,21.31,1111122 
DISL,ioos:station:DISL:BSCA:1,2016-04-05T22:00:00Z,30.3288,-87.8293,21.35,1111122 
DISL,ioos:station:DISL:BSCA:1,2016-04-05T22:30:00Z,30.3288,-87.8293,21.55,1111122 
DISL,ioos:station:DISL:BSCA:1,2016-04-05T23:00:00Z,30.3288,-87.8293,21.45,1111122 
DISL,ioos:station:DISL:BSCA:1,2016-04-05T23:30:00Z,30.3288,-87.8293,21.18,1111122 
DISL,ioos:station:DISL:BSCA:1,2016-04-06T00:00:00Z,30.3288,-87.8293,20.95,1111122 
DISL,ioos:station:DISL:BSCA:1,2016-04-06T00:30:00Z,30.3288,-87.8293,20.72,1111122 
DISL,ioos:station:DISL:BSCA:1,2016-04-06T01:00:00Z,30.3288,-87.8293,20.76,1111122 
DISL,ioos:station:DISL:BSCA:1,2016-04-06T01:30:00Z,30.3288,-87.8293,20.45,1111122 
DISL,ioos:station:DISL:BSCA:1,2016-04-06T02:00:00Z,30.3288,-87.8293,20.45,1111122 
DISL,ioos:station:DISL:BSCA:1,2016-04-06T02:30:00Z,30.3288,-87.8293,20.42,1111122 
DISL,ioos:station:DISL:BSCA:1,2016-04-06T03:00:00Z,30.3288,-87.8293,20.35,1111122 
DISL,ioos:station:DISL:BSCA:1,2016-04-06T03:30:00Z,30.3288,-87.8293,20.45,1111122 
DISL,ioos:station:DISL:BSCA:1,2016-04-06T04:00:00Z,30.3288,-87.8293,18.93,1111122 
DISL,ioos:station:DISL:BSCA:1,2016-04-06T04:30:00Z,30.3288,-87.8293,18.12,1111122 
DISL,ioos:station:DISL:BSCA:1,2016-04-06T05:00:00Z,30.3288,-87.8293,18.15,1111122 
DISL,ioos:station:DISL:BSCA:1,2016-04-06T05:30:00Z,30.3288,-87.8293,18.16,1111122 
DISL,ioos:station:DISL:BSCA:1,2016-04-06T06:00:00Z,30.3288,-87.8293,18.02,1111122 
DISL,ioos:station:DISL:BSCA:1,2016-04-06T06:30:00Z,30.3288,-87.8293,17.55,1111122 
DISL,ioos:station:DISL:BSCA:1,2016-04-06T07:00:00Z,30.3288,-87.8293,17.79,1111122 
DISL,ioos:station:DISL:BSCA:1,2016-04-06T07:30:00Z,30.3288,-87.8293,17.15,1111122 
DISL,ioos:station:DISL:BSCA:1,2016-04-06T08:00:00Z,30.3288,-87.8293,16.3,1111122 
DISL,ioos:station:DISL:BSCA:1,2016-04-06T08:30:00Z,30.3288,-87.8293,16.64,1111122 
DISL,ioos:station:DISL:BSCA:1,2016-04-06T09:00:00Z,30.3288,-87.8293,16.81,1111122 
DISL,ioos:station:DISL:BSCA:1,2016-04-06T09:30:00Z,30.3288,-87.8293,16.85,1111122 
DISL,ioos:station:DISL:BSCA:1,2016-04-06T10:00:00Z,30.3288,-87.8293,16.92,1111122 
DISL,ioos:station:DISL:BSCA:1,2016-04-06T10:30:00Z,30.3288,-87.8293,16.34,1111122 
DISL,ioos:station:DISL:BSCA:1,2016-04-06T11:00:00Z,30.3288,-87.8293,16.31,1111122 
DISL,ioos:station:DISL:BSCA:1,2016-04-06T11:30:00Z,30.3288,-87.8293,16.2,1111122 
DISL,ioos:station:DISL:BSCA:1,2016-04-06T12:00:00Z,30.3288,-87.8293,15.9,1111122 
DISL,ioos:station:DISL:BSCA:1,2016-04-06T12:30:00Z,30.3288,-87.8293,17.19,1111122 
DISL,ioos:station:DISL:BSCA:1,2016-04-06T13:00:00Z,30.3288,-87.8293,18.17,1111122 
DISL,ioos:station:DISL:BSCA:1,2016-04-06T13:30:00Z,30.3288,-87.8293,19.18,1111122 
DISL,ioos:station:DISL:BSCA:1,2016-04-06T14:00:00Z,30.3288,-87.8293,20.18,1111122 
DISL,ioos:station:DISL:BSCA:1,2016-04-06T14:30:00Z,30.3288,-87.8293,20.76,1111122 
DISL,ioos:station:DISL:BSCA:1,2016-04-06T15:00:00Z,30.3288,-87.8293,20.52,1111122 
DISL,ioos:station:DISL:BSCA:1,2016-04-06T15:30:00Z,30.3288,-87.8293,20.69,1111122 
DISL,ioos:station:DISL:BSCA:1,2016-04-06T16:00:00Z,30.3288,-87.8293,20.68,1111122 
DISL,ioos:station:DISL:BSCA:1,2016-04-06T16:30:00Z,30.3288,-87.8293,20.92,1111122 
DISL,ioos:station:DISL:BSCA:1,2016-04-06T17:00:00Z,30.3288,-87.8293,20.75,1111122 
DISL,ioos:station:DISL:BSCA:1,2016-04-06T17:30:00Z,30.3288,-87.8293,20.78,1111122 
DISL,ioos:station:DISL:BSCA:1,2016-04-06T18:00:00Z,30.3288,-87.8293,20.78,1111122 
DISL,ioos:station:DISL:BSCA:1,2016-04-06T18:30:00Z,30.3288,-87.8293,20.85,1111122 
DISL,ioos:station:DISL:BSCA:1,2016-04-06T19:00:00Z,30.3288,-87.8293,20.78,1111122 
DISL,ioos:station:DISL:BSCA:1,2016-04-06T19:30:00Z,30.3288,-87.8293,20.88,1111122 
DISL,ioos:station:DISL:BSCA:1,2016-04-06T20:00:00Z,30.3288,-87.8293,20.75,1111122 
DISL,ioos:station:DISL:BSCA:1,2016-04-06T20:30:00Z,30.3288,-87.8293,20.98,1111122 
DISL,ioos:station:DISL:BSCA:1,2016-04-06T21:00:00Z,30.3288,-87.8293,21.05,1111122 
DISL,ioos:station:DISL:BSCA:1,2016-04-06T21:30:00Z,30.3288,-87.8293,21.19,1111122 
DISL,ioos:station:DISL:BSCA:1,2016-04-06T22:00:00Z,30.3288,-87.8293,21.22,1111122 
DISL,ioos:station:DISL:BSCA:1,2016-04-06T22:30:00Z,30.3288,-87.8293,21.19,1111122 
DISL,ioos:station:DISL:BSCA:1,2016-04-06T23:00:00Z,30.3288,-87.8293,21.12,1111122 
DISL,ioos:station:DISL:BSCA:1,2016-04-06T23:30:00Z,30.3288,-87.8293,21.12,1111122 